[Date Prev][Date Next][Thread Prev][Thread Next] - [Date Index][Thread Index][Author Index]
2 Line ISS Keps 12-13
- Subject: [sarex] 2 Line ISS Keps 12-13
- From: "Dave Larsen Ph.D." <doc@xxxxxxxxxxx>
- Date: Fri, 13 Dec 2002 03:53:11 -0800
ISS
1 25544U 98067A 02347.16043947 .00032517 00000-0 44021-3 0 4694
2 25544 51.6354 234.4923 0003432 261.3158 260.9103 15.57393262231887
----
Via the sarex mailing list at AMSAT.ORG courtesy of AMSAT-NA.
To unsubscribe, send "unsubscribe sarex" to Majordomo@amsat.org
AMSAT Home